Regional Weather Roundup
Issued by NWS Grand Forks, ND

Home | Current Version | Previous Version | Text Only | Print | Product List | Glossary On
Versions: 1 2 3 4 5 6 7 8 9 10 11 12 13 14 15 16 17 18 19 20 21 22 23 24 25 26 27 28 29 30 31 32 33 34 35 36 37 38 39 40 41 42 43 44 45 46 47 48 49 50
800
ASUS43 KFGF 201210
RWRFGF
PRAIRIE TO PINES  WEATHER ROUNDUP
NATIONAL WEATHER SERVICE EASTERN NORTH DAKOTA/GRAND FORKS ND
700 AM CDT SUN MAY 20 2018

 **SATELLITE DATA USED TO AUGMENT SKY COVER AT AUTOMATED STATIONS**
 *****  WEATHER ACROSS EASTERN NORTH DAKOTA  *****

CITY           SKY/WX    TMP DP  RH WIND       PRES   REMARKS
GRAND FORKS    FAIR      38  38 100 S6        30.25R
6HR MIN TEMP:  33; 6HR MAX TEMP:  43;

GRAND FRKS AFB FAIR      43  40  88 SW5       30.24R
GRAND FRKS NWS   N/A     44  39  82 W2        30.22R
DEVILS LAKE    FAIR      47  43  86 SW5       30.26R
6HR MIN TEMP:  40; 6HR MAX TEMP:  47;

FARGO          FAIR      41  37  86 CALM      30.26R
WAHPETON ARPT  FAIR      43  34  70 E3        30.27R
$$

 ***** WEATHER ACROSS CENTRAL AND WESTERN NORTH DAKOTA  *****

CITY           SKY/WX    TMP DP  RH WIND       PRES   REMARKS
BISMARCK       FAIR      39  37  92 CALM      30.29R
6HR MIN TEMP:  35; 6HR MAX TEMP:  47;

MINOT          FAIR      45  32  60 SW7       30.25R
6HR MIN TEMP:  42; 6HR MAX TEMP:  51;

JAMESTOWN      FAIR      40  38  93 CALM      30.26R
6HR MIN TEMP:  36; 6HR MAX TEMP:  48;

MINOT AFB      FAIR      40  32  71 CALM      30.23S
GARRISON         N/A     38  31  76 CALM      30.27R
WILLISTON      FAIR      36  32  85 CALM      30.24S
6HR MIN TEMP:  31; 6HR MAX TEMP:  45;

DICKINSON      FAIR      36  32  85 S7        30.24S
6HR MIN TEMP:  33; 6HR MAX TEMP:  43;

HETTINGER      FAIR      30  27  88 CALM      30.27S
6HR MIN TEMP:  28; 6HR MAX TEMP:  42;

$$

 *****  OTHER AIRPORT OBSERVATIONS IN OUR AREA  *****

CITY           SKY/WX    TMP DP  RH WIND       PRES   REMARKS
WALHALLA       FAIR      54  37  54 W9        30.20S
GRAFTON AIRPOR FAIR      41  41 100 SW5       30.25R
VALLEY CITY AR FAIR      37  37 100 NW3       30.28R
CANDO          FAIR      41  41 100 SW7       30.26S
CAVALIER APRT    N/A     48  34  57 SW6       30.22R
GWINNER          N/A     45  36  70 CALM      30.26R
SHEYENNE NWR     N/A     37  34  88 N2        29.95
ROLLA          FAIR      46  34  61 SW12      30.23S
 ***** THE ABOVE OBSERVATIONS ARE NON NWS ARE NOT QUALITY
       CONTROLLED AND MAY MIS-REPORT RAIN FOR SNOW...
$$

  *****  WEATHER ACROSS NORTHERN MINNESOTA  *****

CITY           SKY/WX    TMP DP  RH WIND       PRES   REMARKS
FLAG ISLAND    FAIR      46  36  66 SE5       30.20R
WARROAD        FAIR      45  37  76 SW3       30.24R
ROSEAU         FAIR      43  37  81 S6        30.24R
HALLOCK        FAIR      39  37  93 SE7       30.23R
THF RVR FALLS  FAIR      42  35  76 S5        30.27R
6HR MIN TEMP:  36; 6HR MAX TEMP:  45;

BAUDETTE       FAIR      43  36  76 SW5       30.23R
6HR MIN TEMP:  38; 6HR MAX TEMP:  43;

WASKISH        FAIR      41  36  81 CALM      30.26R
CROOKSTON      FAIR      43  37  81 S5        30.27R
STEPHEN NDAWN    N/A     43  39  87 S2          N/A
GREENBUSH NDAW   N/A     43  37  81 S3          N/A
$$
  *****  WEATHER ACROSS CENTRAL AND WEST MINNESOTA  *****

CITY           SKY/WX    TMP DP  RH WIND       PRES   REMARKS
FOSSTON        FAIR      39  34  81 CALM      30.27R
BEMIDJI        FAIR      34  33  95 CALM      30.27R
6HR MIN TEMP:  27; 6HR MAX TEMP:  35;

PARK RAPIDS    FAIR      36  35  96 CALM      30.27R
6HR MIN TEMP:  32; 6HR MAX TEMP:  42;

ELBOW LAKE     FAIR      47  38  73 E5        30.26S
6HR MIN TEMP:  44; 6HR MAX TEMP:  52;

WADENA         FAIR      37  36  93 CALM      30.27R
DETROIT LAKES  FAIR      43  36  75 CALM      30.27R
MOORHEAD       FAIR      39  34  81 CALM      30.27R
FERGUS FALLS   FAIR      43  37  81 E3        30.24R
MORRIS MN      FAIR      46  39  76 E6        30.24R
STAPLES        FAIR      37  36  93 CALM      30.27R
$$
  *****  WEATHER ELSEWHERE ACROSS MINNESOTA  *****

CITY           SKY/WX    TMP DP  RH WIND       PRES   REMARKS
DULUTH         FAIR      40  36  86 CALM      30.26R
6HR MIN TEMP:  31; 6HR MAX TEMP:  40;

INTRNTL FALLS  FAIR      38  37  97 CALM      30.24R
6HR MIN TEMP:  31; 6HR MAX TEMP:  38;

ELY            FAIR      36  36 100 CALM      30.26R
CLOQUET        FAIR      36  34  93 NW3       30.27R
WHEATON        FAIR      41  36  81 CALM      30.27S
BRAINERD       FAIR      41  39  93 CALM      30.28R
6HR MIN TEMP:  32; 6HR MAX TEMP:  45;

HIBBING        FAIR      32  30  92 NW3       30.27R
6HR MIN TEMP:  25; 6HR MAX TEMP:  32;

ALEXANDRIA     FAIR      47  38  71 E8        30.26R
6HR MIN TEMP:  42; 6HR MAX TEMP:  52;

SAINT CLOUD    FAIR      42  37  82 N5        30.25R
6HR MIN TEMP:  37; 6HR MAX TEMP:  48;

MINNEAPOLIS    PTSUNNY   47  37  68 NE12      30.22R
6HR MIN TEMP:  46; 6HR MAX TEMP:  51;

$$

  *****  WEATHER ACROSS SOUTH DAKOTA  *****

CITY           SKY/WX    TMP DP  RH WIND       PRES   REMARKS
SIOUX FALLS    CLOUDY    49  40  71 NE15      30.18R
6HR MIN TEMP:  49; 6HR MAX TEMP:  55; 6HR PCP: TRACE;

BROOKINGS      FAIR      46  39  76 NE9       30.21R
WATERTOWN      FAIR      42  38  85 N5        30.21S
6HR MIN TEMP:  38; 6HR MAX TEMP:  51;

HURON          FAIR      42  38  85 CALM      30.23R
6HR MIN TEMP:  37; 6HR MAX TEMP:  53;

SISSETON         N/A     41  36  82 CALM      30.24S
ABERDEEN       FAIR      43  37  79 N3        30.25R
6HR MIN TEMP:  38; 6HR MAX TEMP:  49;

MITCHELL       CLOUDY    49  42  77 NE13      30.21R
PIERRE         FAIR      42  38  85 E3        30.22R
6HR MIN TEMP:  41; 6HR MAX TEMP:  50;

MOBRIDGE       FAIR      44  40  85 N6        30.24R
RAPID CITY     FAIR      38  32  79 CALM      30.25S
6HR MIN TEMP:  35; 6HR MAX TEMP:  43;

$$

  *****  SOME WEATHER IN NEARBY STATES *****

CITY           SKY/WX    TMP DP  RH WIND       PRES   REMARKS
GLASGOW MT     FAIR      43  37  79 E10       30.14S
6HR MIN TEMP:  42; 6HR MAX TEMP:  48;

GREAT FALLS MT FAIR      48  39  71 S14       30.02F
6HR MIN TEMP:  47; 6HR MAX TEMP:  51;

CHEYENNE WY    CLOUDY    37  37 100 SE6       30.24R FOG
6HR MIN TEMP:  37; 6HR MAX TEMP:  38; 6HR PCP: TRACE;

SCOTTSBLUFF NE MOCLDY    43  41  93 NW3       30.24R
6HR MIN TEMP:  43; 6HR MAX TEMP:  44;

OMAHA NE       CLOUDY    57  53  86 NE13      30.08R
6HR MIN TEMP:  57; 6HR MAX TEMP:  59; 6HR PCP:  0.01;

DES MOINES IA  CLOUDY    58  52  80 NE14      30.06R
6HR MIN TEMP:  58; 6HR MAX TEMP:  64;

DAVENPORT IA   CLOUDY    59  56  89 E16       30.07R FOG
6HR MIN TEMP:  59; 6HR MAX TEMP:  68;

CHICAGO IL     LGT RAIN  44  41  89 N18       30.13R
6HR MIN TEMP:  44; 6HR MAX TEMP:  56; 6HR PCP:  0.01;

EAU CLAIRE WI  CLOUDY    44  37  76 NE8       30.21R
6HR MIN TEMP:  43; 6HR MAX TEMP:  48;

LA CROSSE WI   CLOUDY    50  50 100 N7        30.18R
6HR MIN TEMP:  49; 6HR MAX TEMP:  55; 6HR PCP:  0.76;

$$

  *****  SOME NATIONAL WEATHER *****

CITY           SKY/WX    TMP DP  RH WIND       PRES   REMARKS
LA GUARDIA NY  CLOUDY    68  65  90 S10       29.96S
6HR MIN TEMP:  55; 6HR MAX TEMP:  68;

RALEIGH NC     PTSUNNY   71  70  96 SW7       30.15R
6HR MIN TEMP:  69; 6HR MAX TEMP:  71;

ATLANTA GA     PTSUNNY   72  69  90 CALM      30.13R
6HR MIN TEMP:  69; 6HR MAX TEMP:  73;

NEW ORLEANS LA FAIR      77  75  93 E7        30.04R
6HR MIN TEMP:  77; 6HR MAX TEMP:  79;

OKLAHOMA CITY  CLOUDY    63  61  93 NW7       30.04R
6HR MIN TEMP:  62; 6HR MAX TEMP:  66; 6HR PCP:  0.45;

ALBUQUERQUE NM FAIR      56  40  55 E29G37    30.09R
6HR MIN TEMP:  56; 6HR MAX TEMP:  67;

SALT LAKE CITY FAIR      58  43  57 S10       29.94R
6HR MIN TEMP:  58; 6HR M



USA.gov is the U.S. government's official web portal to all federal, state and local government web resources and services.